Aérodrome :
LOGIN :

S'inscrire | Disclaimer

   EN    FR    IT 

 










Légende :    VFR   VFR Marginal   IFR   IFR Intensif   IFR Très Intensif
Visi : 
Plafond : 
>= 8 km
>= 3000ft
5 à 8 km
1000 à 3000 ft
1500m à 5 km
500 à 1000 ft
800 à 1500m
200 à 500 ft
< 800m
< 200 ft
Symboles :   Orages  Brouillard  Fortes neiges  Fortes précipitations  Vent > 20 kt
SIGMETs :   Divers  Orages  Givrage  Turbulence  Onde Orograph.  Cendres Volcan.







- Altitude de l'aérodrome : 1302 ft
- Code IATA : GNB
- Voir les cartes d'approche


LFLS - Grenoble / St. Geoirs

DERNIER METAR :
  • 192000Z AUTO 11004KT 080V140 CAVOK 20/13 Q1021

METARs EXPIRÉS :
  • 191930Z AUTO 13005KT CAVOK 20/13 Q1021
  • 191900Z AUTO 12004KT CAVOK 20/13 Q1021 NOSIG
  • 191830Z AUTO 03003KT CAVOK 21/12 Q1020 NOSIG
  • 191800Z AUTO 36004KT CAVOK 22/13 Q1020 NOSIG
  • 191730Z AUTO 35004KT CAVOK 26/12 Q1020 NOSIG

TAF TAF LFLS
Valide du 19 à 15h jusqu'au 20 à 15h UTC


191400Z 1915/2015 34008KT 9999 FEW060
BECMG 1917/1919 VRB02KT CAVOK
BECMG 2010/2012 02007KT
ATIS : +33 4 76 65 55 89
Pas de NOTAMs connus pour ce terrain.



MET'MAP, la Météo Aéronautique d'un coup d'oeil ! - Copyright ORBIFLY Décembre 2007 - Disclaimer

ORBIFLY MET'MAP TEAM :

Programmation & Développement : Alexandra Zaïnal
Conception & Développement : Baudouin d'Aumeries
Co-Programmation & Développement : Marc-Olivier Méhu
Soutien technique & logistique : Manuel Goepfert

Contact : metmap@orbifly.com




SOURCES & CREDITS :

   NOAA